[[{"header":{"parameterUnit":"m.s-1","parameterCategory":1,"la1":30.2991,"la2":30.254,"lo1":-89.0895,"lo2":-89.0444,"dy":0.0017,"dx":0.0017,"nx":28,"ny":28,"refTime":"2024-06-13T21:00:00:Z","depth":0,"parameterNumber":2,"parameterNumberName":"U-component_of_WINDS"},"data":[0,0,0,0,0,0,0,0,0,0,0,0,0,0,0,0,0,0,0,0,0,0,0,0,0,0,0,0,0,0,0,0,0,0,0,0,0,0,0,0,0,0,0,0,0,0,0,0,0,0,0,0,0,0,0,0,0,0,-1.0839,-1.084,0,-1.0855,-1.0855,-1.0855,-1.0843,-1.0842,-1.0842,-1.0841,-1.0858,-1.0859,-1.086,0,0,0,0,0,0,0,0,0,0,0,0,0,-1.0801,-1.0801,-1.0839,-1.084,-1.084,-1.0855,-1.0855,-1.0855,-1.0843,-1.0842,-1.0841,-1.0841,-1.0857,-1.0858,-1.086,0,0,0,0,0,0,0,0,0,0,0,0,0,-1.0817,-1.0802,-1.0839,-1.0835,-1.0835,-1.0855,-1.0855,-1.0855,-1.0843,-1.0842,-1.0841,-1.084,-1.0857,-1.0858,-1.086,-1.0884,0,0,-1.0864,-1.0865,0,0,0,0,0,0,0,0,-1.0816,-1.0818,-1.0836,-1.0836,-1.0835,-1.0846,-1.0847,-1.0865,-1.0843,-1.084,-1.0841,-1.084,-1.0854,-1.0856,-1.0861,-1.0885,-1.0886,-1.0864,-1.0865,-1.0866,-1.0866,0,0,0,0,0,0,0,-1.0815,-1.0818,-1.0846,-1.0836,-1.0836,-1.0833,-1.0835,-1.0851,-1.0852,-1.084,-1.0839,-1.0841,-1.0854,-1.0859,-1.0861,-1.0886,-1.0864,-1.0865,-1.0866,-1.0867,-1.0932,-1.0933,0,0,0,0,0,0,-1.0814,-1.0817,-1.0845,-1.0846,-1.0824,-1.0835,-1.0836,-1.0843,-1.0851,-1.0852,-1.0842,-1.0841,-1.0857,-1.0859,-1.0862,-1.0891,-1.0866,-1.0867,-1.0868,-1.0931,-1.0933,-1.0934,0,0,0,0,0,0,-1.0813,-1.0817,-1.0844,-1.0831,-1.0834,-1.0836,-1.0844,-1.0844,-1.0849,-1.0853,-1.0853,-1.0847,-1.0857,-1.086,-1.0879,-1.0892,-1.0868,-1.0869,-1.093,-1.0932,-1.0933,-1.0951,0,0,0,0,0,0,-1.0812,-1.0816,-1.0825,-1.0831,-1.0835,-1.0861,-1.0845,-1.0845,-1.0852,-1.085,-1.0857,-1.0858,-1.0856,-1.0877,-1.088,-1.0893,-1.087,-1.0929,-1.0931,-1.0933,-1.0949,-1.0953,-1.0956,0,0,0,0,0,-1.0811,-1.083,-1.0826,-1.0829,-1.0847,-1.0862,-1.0864,-1.0862,-1.0853,-1.0862,-1.0864,-1.0858,-1.089,-1.0879,-1.0883,-1.0896,-1.0928,-1.0931,-1.0933,-1.0948,-1.0952,-1.0956,0,0,0,0,0,0,-1.0826,-1.0831,-1.0826,-1.0848,-1.0855,-1.086,-1.0871,-1.0866,-1.0876,-1.0874,-1.0871,-1.0873,-1.0894,-1.0897,-1.0885,-1.0921,-1.0908,-1.0911,-1.0918,-1.0922,-1.0925,-1.0924,-1.0871,0,0,0,0,0,-1.0831,-1.0843,-1.0847,-1.0866,-1.0869,-1.087,-1.0876,-1.0874,-1.0881,-1.0884,-1.0888,-1.0895,-1.0907,-1.0915,-1.0926,-1.095,-1.0951,-1.0961,-1.0964,-1.0967,-1.0969,-1.0983,-1.0987,-1.094,-1.094,-1.094,0,0,-1.0844,-1.0848,-1.0855,-1.0869,-1.0874,-1.0886,-1.0872,-1.0886,-1.0896,-1.0886,-1.0905,-1.0908,-1.0916,-1.0938,-1.0947,-1.0941,-1.0983,-1.0969,-1.0971,-1.0973,-1.0985,-1.099,-1.0994,-1.0942,-1.0941,-1.0941,0,0,-1.0872,-1.0876,-1.0892,-1.0898,-1.0905,-1.0906,-1.0909,-1.0916,-1.0917,-1.0936,-1.0929,-1.094,-1.0961,-1.0967,-1.0973,-1.1004,-1.0998,-1.1008,-1.1025,-1.1038,-1.1042,-1.1045,-1.1057,-1.1061,-1.101,-1.101,-1.101,0,-1.0886,-1.0905,-1.0901,-1.0916,-1.0922,-1.0914,-1.0931,-1.0936,-1.0947,-1.0952,-1.0945,-1.097,-1.0975,-1.0998,-1.1006,-1.1011,-1.1016,-1.1007,-1.1041,-1.1045,-1.1048,-1.1059,-1.1063,-1.1011,-1.1011,-1.1011,-1.1011,0,-1.0922,-1.0935,-1.0947,-1.0958,-1.0966,-1.0981,-1.0981,-1.0989,-1.0986,-1.0988,-1.1007,-1.1012,-1.1025,-1.103,-1.1027,-1.1053,-1.1049,-1.1042,-1.1028,-1.1053,-1.1064,-1.1068,-1.1013,-1.1013,-1.1012,-1.1012,0,0,-1.096,-1.0969,-1.0974,-1.0979,-1.0986,-1.0997,-1.1012,-1.1024,-1.1031,-1.1039,-1.1052,-1.107,-1.1063,-1.107,-1.1068,-1.1079,-1.1104,-1.107,-1.1071,-1.1077,-1.1134,-1.114,-1.1145,-1.1101,-1.1102,-1.1102,-1.1133,0,-1.099,-1.1016,-1.1014,-1.1039,-1.1051,-1.1044,-1.1057,-1.1064,-1.1066,-1.1077,-1.1079,-1.1091,-1.1081,-1.1085,-1.1096,-1.1099,-1.1116,-1.1097,-1.1114,-1.1114,-1.1112,-1.115,-1.1156,-1.1186,-1.1137,-1.1138,-1.1139,0,-1.1027,-1.1036,-1.1063,-1.1069,-1.1074,-1.1086,-1.1097,-1.1107,-1.1115,-1.1116,-1.1123,-1.1119,-1.1136,-1.1122,-1.1144,-1.1131,-1.1138,-1.1141,-1.1142,-1.1143,-1.1128,-1.1153,-1.1195,-1.1199,-1.1145,-1.1144,-1.1144,0,-1.1053,-1.1072,-1.109,-1.1095,-1.1102,-1.1111,-1.1115,-1.1122,-1.1129,-1.1139,-1.1143,-1.1155,-1.1161,-1.117,-1.117,-1.116,-1.1193,-1.1179,-1.1194,-1.1195,-1.1202,-1.1202,-1.1246,-1.1206,-1.1206,-1.1206,-1.1206,0,-1.1086,-1.1103,-1.1102,-1.1113,-1.1132,-1.1129,-1.1148,-1.1151,-1.1157,-1.1169,-1.1163,-1.1175,-1.1174,-1.1185,-1.1185,-1.1204,-1.1207,-1.1208,-1.1208,-1.1209,-1.1209,-1.1214,-1.1212,-1.1207,-1.1207,-1.1206,-1.1206,0,-1.1119,-1.1119,-1.1138,-1.1144,-1.1146,-1.1159,-1.1164,-1.1175,-1.1177,-1.1192,-1.1196,-1.1198,-1.1211,-1.1212,-1.1228,-1.1228,-1.1251,-1.1248,-1.1248,-1.1248,-1.1263,-1.1262,-1.1312,-1.1319,-1.1274,-1.1275,-1.1275,0,-1.114,-1.1153,-1.116,-1.1167,-1.1171,-1.1184,-1.1191,-1.1189,-1.1197,-1.1207,-1.1217,-1.123,-1.124,-1.1263,-1.1266,-1.1278,-1.1276,-1.1293,-1.1278,-1.1278,-1.1277,-1.1276,-1.1278,-1.1296,-1.1296,-1.1297,-1.1297,0,-1.1179,-1.1178,-1.1188,-1.1199,-1.1208,-1.1217,-1.1224,-1.1231,-1.123,-1.1239,-1.1253,-1.1261,-1.1277,-1.1291,-1.1302,-1.1307,-1.1302,-1.1302,-1.1306,-1.1307,-1.1307,-1.1308,-1.1257,-1.1301,-1.13,-1.13,-1.13,-1.13,-1.1207,-1.1217,-1.1224,-1.1236,-1.1242,-1.1249,-1.126,-1.1262,-1.1274,-1.1286,-1.1285,-1.13,-1.1308,-1.1323,-1.1328,-1.1341,-1.1335,-1.1341,-1.1343,-1.1345,-1.1346,-1.1304,-1.1343,-1.1343,-1.1343,-1.1343,-1.1343,0,-1.1245,-1.1249,-1.126,-1.1271,-1.1281,-1.1275,-1.1283,-1.1292,-1.1305,-1.1313,-1.1323,-1.1339,-1.1352,-1.1356,-1.1369,-1.1378,-1.1376,-1.1381,-1.1381,-1.1382,-1.1351,-1.1346,-1.1383,-1.1383,-1.1383,-1.1383,-1.1383,-1.1383,-1.1266,-1.1285,-1.1285,-1.1306,-1.131,-1.1325,-1.133,-1.1337,-1.1343,-1.1361,-1.1371,-1.1374,-1.138,-1.1393,-1.1405,-1.1406,-1.1411,-1.1418,-1.1418,-1.1388,-1.1384,-1.138,-1.1376,-1.1418,-1.1419,-1.1448,-1.1449,-1.1449]},{"header":{"parameterUnit":"m.s-1","parameterCategory":1,"la1":30.2991,"la2":30.254,"lo1":-89.0895,"lo2":-89.0444,"dy":0.0017,"dx":0.0017,"nx":28,"ny":28,"refTime":"2024-06-13T21:00:00:Z","depth":0,"parameterNumber":3,"parameterNumberName":"V-component_of_WINDS"},"data":[0,0,0,0,0,0,0,0,0,0,0,0,0,0,0,0,0,0,0,0,0,0,0,0,0,0,0,0,0,0,0,0,0,0,0,0,0,0,0,0,0,0,0,0,0,0,0,0,0,0,0,0,0,0,0,0,0,0,3.4679,3.4679,0,3.4691,3.4691,3.4691,3.469,3.4689,3.4689,3.4689,3.47,3.47,3.47,0,0,0,0,0,0,0,0,0,0,0,0,0,3.4652,3.4652,3.4679,3.4679,3.4679,3.4691,3.4691,3.4692,3.469,3.4689,3.4689,3.4689,3.4699,3.47,3.4701,0,0,0,0,0,0,0,0,0,0,0,0,0,3.4664,3.4652,3.4679,3.468,3.468,3.4691,3.4691,3.4692,3.469,3.4689,3.4689,3.4689,3.4699,3.47,3.4701,3.4711,0,0,3.4703,3.4703,0,0,0,0,0,0,0,0,3.4663,3.4665,3.4679,3.4679,3.468,3.4689,3.4686,3.4698,3.469,3.4686,3.4689,3.4689,3.4696,3.4697,3.47,3.4712,3.4712,3.4703,3.4703,3.4704,3.4704,0,0,0,0,0,0,0,3.4662,3.4664,3.4683,3.4679,3.468,3.4679,3.468,3.4688,3.4692,3.4686,3.4686,3.4688,3.4696,3.4699,3.47,3.4712,3.4703,3.4703,3.4704,3.4704,3.4734,3.4735,0,0,0,0,0,0,3.4661,3.4663,3.4683,3.4684,3.4671,3.468,3.4681,3.4686,3.4692,3.4693,3.4688,3.4688,3.4698,3.4699,3.47,3.4714,3.4704,3.4704,3.4705,3.4734,3.4735,3.4735,0,0,0,0,0,0,3.4661,3.4663,3.4683,3.4674,3.4676,3.4681,3.4686,3.4686,3.469,3.4694,3.4694,3.4691,3.4698,3.4699,3.4709,3.4714,3.4704,3.4705,3.4734,3.4734,3.4735,3.474,0,0,0,0,0,0,3.466,3.4663,3.4667,3.4674,3.4677,3.4691,3.4686,3.4687,3.4691,3.4691,3.4696,3.4697,3.4698,3.4708,3.471,3.4715,3.4706,3.4733,3.4734,3.4735,3.474,3.4741,3.4742,0,0,0,0,0,3.4659,3.4667,3.4667,3.467,3.4682,3.4691,3.4693,3.4695,3.4692,3.4696,3.4699,3.4697,3.4714,3.4709,3.4711,3.4716,3.4733,3.4734,3.4734,3.4739,3.4741,3.4742,0,0,0,0,0,0,3.466,3.4668,3.4668,3.4679,3.4685,3.4691,3.4696,3.4696,3.4702,3.4701,3.4703,3.4704,3.4714,3.4716,3.4711,3.4728,3.4723,3.4724,3.4726,3.4727,3.4729,3.4727,3.4706,0,0,0,0,0,3.4661,3.4669,3.4676,3.4684,3.4688,3.4692,3.4696,3.4697,3.4702,3.4704,3.4708,3.4713,3.4719,3.4723,3.473,3.474,3.4742,3.4745,3.4747,3.4748,3.4749,3.4755,3.4757,3.4738,3.4738,3.4738,0,0,3.4664,3.467,3.4674,3.4685,3.4689,3.4697,3.4693,3.4701,3.4707,3.4705,3.4715,3.4718,3.4723,3.4734,3.4739,3.4736,3.4755,3.4749,3.475,3.475,3.4757,3.4758,3.476,3.4738,3.4738,3.4738,0,0,3.4673,3.4678,3.4687,3.4692,3.47,3.4703,3.4705,3.4712,3.4714,3.4724,3.4723,3.473,3.4741,3.4745,3.4749,3.4762,3.4761,3.4764,3.477,3.4777,3.4779,3.478,3.4785,3.4787,3.4765,3.4765,3.4765,0,3.4676,3.4688,3.4691,3.47,3.4705,3.4705,3.4714,3.4718,3.4727,3.473,3.4728,3.4743,3.4746,3.4759,3.4762,3.4765,3.4767,3.4763,3.4778,3.478,3.4781,3.4786,3.4788,3.4766,3.4765,3.4765,3.4765,0,3.4691,3.4699,3.4705,3.4715,3.4721,3.4729,3.4734,3.4739,3.474,3.4743,3.4754,3.4759,3.4766,3.4769,3.477,3.4782,3.478,3.4778,3.4773,3.4783,3.4788,3.479,3.4766,3.4766,3.4766,3.4766,0,0,3.4699,3.4713,3.4715,3.472,3.4729,3.4735,3.4744,3.4753,3.4758,3.4764,3.4772,3.4782,3.4781,3.4785,3.4786,3.4792,3.4803,3.4789,3.4789,3.4792,3.4817,3.4819,3.4821,3.4802,3.4803,3.4803,3.4817,0,3.471,3.4726,3.473,3.4744,3.4753,3.4754,3.4762,3.4768,3.4772,3.4779,3.4783,3.4791,3.4788,3.4791,3.4797,3.48,3.4808,3.4799,3.4809,3.4809,3.4807,3.4823,3.4824,3.4837,3.4818,3.4819,3.4819,0,3.4723,3.4732,3.4747,3.4757,3.4761,3.4768,3.4777,3.4784,3.4791,3.4794,3.4799,3.48,3.481,3.4805,3.4818,3.4812,3.4816,3.4819,3.482,3.482,3.4814,3.4824,3.4841,3.4843,3.4822,3.4821,3.4821,0,3.4729,3.4744,3.4755,3.476,3.4771,3.4776,3.4781,3.4788,3.4794,3.4802,3.4805,3.4814,3.4818,3.4825,3.4828,3.4824,3.4841,3.4836,3.4843,3.4843,3.4846,3.4845,3.4863,3.4849,3.4849,3.4849,3.4849,0,3.474,3.4749,3.4758,3.4765,3.4776,3.4781,3.4791,3.4796,3.4803,3.481,3.4812,3.4819,3.4823,3.4831,3.4834,3.4844,3.4846,3.4848,3.4849,3.4848,3.4848,3.485,3.4849,3.4849,3.4849,3.4849,3.4849,0,3.4747,3.4753,3.4766,3.4777,3.4779,3.4787,3.4796,3.4803,3.4807,3.4817,3.482,3.4826,3.4836,3.484,3.4851,3.4853,3.4865,3.4865,3.4863,3.4863,3.487,3.4869,3.489,3.4893,3.4876,3.4876,3.4877,0,3.4753,3.4761,3.4773,3.4779,3.4784,3.4794,3.48,3.4805,3.4811,3.4822,3.4827,3.4837,3.4845,3.486,3.4866,3.4875,3.4875,3.4881,3.4876,3.4875,3.4875,3.4874,3.4875,3.4882,3.4882,3.4882,3.4882,0,3.4764,3.4767,3.4777,3.4788,3.4796,3.4804,3.4812,3.4817,3.4824,3.4831,3.4841,3.4848,3.486,3.487,3.4879,3.4884,3.4884,3.4885,3.4887,3.4886,3.4884,3.4885,3.4865,3.4884,3.4884,3.4883,3.4883,3.4883,3.4771,3.4778,3.4789,3.4799,3.4807,3.4815,3.4822,3.4829,3.4838,3.4849,3.4852,3.4863,3.4871,3.4884,3.4889,3.4898,3.4896,3.4899,3.49,3.49,3.4901,3.4883,3.4899,3.4899,3.4899,3.4899,3.4899,0,3.4782,3.479,3.48,3.4812,3.4821,3.4822,3.4832,3.4839,3.4849,3.4857,3.4866,3.4878,3.4888,3.4895,3.4905,3.4911,3.4911,3.4913,3.4912,3.4914,3.4901,3.4899,3.4913,3.4913,3.4913,3.4913,3.4913,3.4913,3.4789,3.4802,3.4807,3.4823,3.483,3.4842,3.4848,3.4855,3.4862,3.4876,3.4885,3.489,3.4898,3.4909,3.4918,3.492,3.4924,3.4926,3.4927,3.4916,3.4914,3.4913,3.491,3.4926,3.4926,3.4939,3.4939,3.4939]}]]